,,PA_Meas_PMT16A,,PR_Meas_QMR101_102,,RH_Meas_QMH101,,SR_Meas_QMS101,,TA_Meas_QMH101,,GenWind,,GenWind,
time,status,PA,status,PR,status,RH,status,SR,status,TA,status,DirAvg,status,SpdAvg,
2016-04-02, 09:04:04,VALID,919.109,VALID,0,VALID,104,VALID,88.9613,VALID,22.3347,VALID,49,VALID,0,
2016-04-02, 09:05:04,VALID,919.133,VALID,0,VALID,104,VALID,94.011,VALID,22.3933,VALID,49,VALID,0,
2016-04-02, 09:06:04,VALID,919.126,VALID,0,VALID,104,VALID,100.135,VALID,22.4323,VALID,49,VALID,0,
2016-04-02, 09:07:04,VALID,919.132,VALID,0,VALID,104,VALID,104.755,VALID,22.4908,VALID,49,VALID,0,
2016-04-02, 09:08:04,VALID,919.122,VALID,0,VALID,104,VALID,108.301,VALID,22.5884,VALID,49,VALID,0,
2016-04-02, 09:09:04,VALID,919.114,VALID,0,VALID,104,VALID,113.565,VALID,22.6274,VALID,49,VALID,0,
2016-04-02, 09:10:04,VALID,919.123,VALID,0,VALID,104,VALID,121.516,VALID,22.6452,VALID,49,VALID,0,
2016-04-02, 09:11:04,VALID,919.111,VALID,0,VALID,104,VALID,137.417,VALID,22.7445,VALID,49,VALID,0,
2016-04-02, 09:12:04,VALID,919.095,VALID,0,VALID,104,VALID,161.699,VALID,22.8031,VALID,49,VALID,0,
2016-04-02, 09:13:04,VALID,919.108,VALID,0,VALID,104,VALID,176.848,VALID,22.8599,VALID,49,VALID,0,
2016-04-02, 09:14:04,VALID,919.106,VALID,0,VALID,104,VALID,189.311,VALID,23.0178,VALID,49,VALID,0,
2016-04-02, 09:15:04,VALID,919.111,VALID,0,VALID,104,VALID,205.213,VALID,23.1157,65535,65535,
2016-04-02, 09:52:04,VALID,919.121,VALID,0,VALID,104,VALID,109.375,VALID,22.7445,VALID,101,VALID,0,
2016-04-02, 09:53:04,VALID,919.141,VALID,0,VALID,104,VALID,118.615,VALID,22.725,VALID,107,VALID,0,
2016-04-02, 09:54:04,VALID,919.149,VALID,0.2,VALID,104,VALID,139.459,VALID,22.7445,VALID,109,VALID,0.983203,
2016-04-02, 09:55:04,VALID,919.161,VALID,0,VALID,104,VALID,182.435,VALID,22.7445,VALID,115,VALID,0.750391,
2016-04-02, 09:56:04,VALID,919.176,VALID,0,VALID,104,VALID,237.445,VALID,22.8031,VALID,135,VALID,0.60625,
2016-04-02, 09:57:04,VALID,919.147,VALID,0,VALID,104,VALID,269.033,VALID,22.8421,VALID,123,VALID,0,
2016-04-02, 09:58:04,VALID,919.146,VALID,0,VALID,104,VALID,276.661,VALID,22.8812,VALID,106,VALID,0.000390625,
2016-04-02, 09:59:04,VALID,919.171,VALID,0,VALID,104,VALID,274.082,VALID,22.9787,VALID,116,VALID,0,
2016-04-02, 10:00:04,VALID,919.151,VALID,0,VALID,104,VALID,319.315,VALID,23.0568,VALID,85,VALID,0.103516,
2016-04-02, 10:01:04,VALID,919.154,VALID,0,VALID,104,VALID,493.37,VALID,23.0959,VALID,119,VALID,0,
2016-04-02, 10:02:04,VALID,919.127,VALID,0,VALID,104,VALID,527.751,VALID,23.213,VALID,91,VALID,0.917188,
2016-04-02, 10:03:04,VALID,919.091,VALID,0,VALID,104,VALID,487.568,VALID,23.3691,VALID,83,VALID,1.47227,
2016-04-02, 10:04:04,VALID,919.09,VALID,0,VALID,104,VALID,534.842,VALID,23.4845,VALID,93,VALID,1.7375,
2016-04-02, 10:05:04,VALID,919.082,VALID,0,VALID,102.238,VALID,475.212,VALID,23.6016,VALID,107,VALID,2.74102,
2016-04-02, 10:06:04,VALID,919.076,VALID,0,VALID,100.568,VALID,490.576,VALID,23.7596,VALID,99,VALID,2.50664,
2016-04-02, 10:07:04,VALID,919.094,VALID,0,VALID,100.53,VALID,440.186,VALID,23.8572,VALID,87,VALID,0.388281,
2016-04-02, 10:08:04,VALID,919.106,VALID,0,VALID,101.064,VALID,403.012,VALID,23.9353,VALID,63,VALID,0.29375,
2016-04-02, 10:09:04,VALID,919.103,VALID,0,VALID,95.8416,VALID,385.499,VALID,23.9335,VALID,69,VALID,1.80234,
2016-04-02, 10:10:04,VALID,919.095,VALID,0,VALID,87.5778,VALID,358.639,VALID,23.9548,VALID,95,VALID,1.58867,
2016-04-02, 10:11:04,VALID,919.129,VALID,0,VALID,88.8052,VALID,342.522,VALID,23.9725,VALID,87,VALID,0.932031,
2016-04-02, 10:12:04,VALID,919.092,VALID,0,VALID,93.6842,VALID,382.383,VALID,23.953,VALID,70,VALID,2.37695,
2016-04-02, 10:13:04,VALID,919.101,VALID,0,VALID,100.042,VALID,374.218,VALID,23.9725,VALID,62,VALID,0.142578,
2016-04-02, 10:14:04,VALID,919.146,VALID,0,VALID,100.873,VALID,319.208,VALID,24.0506,VALID,77,VALID,0.773047,
2016-04-02, 10:15:04,VALID,919.146,VALID,0,VALID,100.225,VALID,272.793,VALID,24.1305,VALID,91,VALID,1.2957,
2016-04-02, 10:16:04,VALID,919.156,VALID,0,VALID,97.6788,VALID,257.644,VALID,24.111,VALID,88,VALID,1.24844,
2016-04-02, 10:17:04,VALID,919.122,VALID,0,VALID,97.534,VALID,270.429,VALID,24.0115,VALID,79,VALID,2.05781,
2016-04-02, 10:18:04,VALID,919.101,VALID,0,VALID,85.2755,VALID,262.909,VALID,23.953,VALID,53,VALID,3.52227,
2016-04-02, 10:19:04,VALID,919.144,VALID,0,VALID,96.7869,VALID,279.454,VALID,23.9121,VALID,79,VALID,0.594922,
2016-04-02, 10:20:04,VALID,919.119,VALID,0,VALID,99.6457,VALID,289.124,VALID,23.9335,VALID,44,VALID,1.04336,
2016-04-02, 10:21:04,VALID,919.13,VALID,0,VALID,89.9411,VALID,220.792,VALID,23.8944,VALID,76,VALID,2.37773,
2016-04-02, 10:22:04,VALID,919.083,VALID,0,VALID,82.9656,VALID,195.006,VALID,23.8163,VALID,78,VALID,2.55586,
2016-04-02, 10:23:04,VALID,919.05,VALID,0,VALID,88.3935,VALID,262.371,VALID,23.7773,VALID,96,VALID,0.908203,
2016-04-02, 10:24:04,VALID,919.094,VALID,0,VALID,94.942,VALID,326.299,VALID,23.7968,VALID,91,VALID,0.967578,
2016-04-02, 10:25:04,VALID,919.048,VALID,0,VALID,99.0282,VALID,339.514,VALID,23.8358,VALID,71,VALID,0,
2016-04-02, 10:26:04,VALID,919.04,VALID,0,VALID,97.2748,VALID,334.894,VALID,23.8554,VALID,79,VALID,1.54258,
2016-04-02, 10:27:04,VALID,919.055,VALID,0,VALID,85.3594,VALID,328.555,VALID,23.8163,VALID,68,VALID,4.08555,
2016-04-02, 10:28:04,VALID,919.048,VALID,0,VALID,89.6209,VALID,336.506,VALID,23.7968,VALID,53,VALID,3.43438,
2016-04-02, 10:29:04,VALID,919.03,VALID,0,VALID,84.7495,VALID,418.913,VALID,23.7755,VALID,52,VALID,4.17617,
2016-04-02, 10:30:04,VALID,919.017,VALID,0,VALID,85.4204,VALID,382.168,VALID,23.7968,VALID,50,VALID,4.02617,
2016-04-02, 10:31:04,VALID,918.99,VALID,0,VALID,84.7343,VALID,336.613,VALID,23.7986,VALID,59,VALID,2.77852,
2016-04-02, 10:32:04,VALID,919.035,VALID,0,VALID,97.3586,VALID,420.847,VALID,23.795,VALID,52,VALID,2.25625,
2016-04-02, 10:33:04,VALID,919.039,VALID,0,VALID,92.838,VALID,378.085,VALID,23.9139,VALID,46,VALID,2.8,
2016-04-02, 10:34:04,VALID,919.033,VALID,0,VALID,84.9477,VALID,346.605,VALID,23.9548,VALID,66,VALID,2.19961,
2016-04-02, 10:35:04,VALID,919.014,VALID,0,VALID,87.2119,VALID,323.505,VALID,23.9743,VALID,90,VALID,1.48359,
2016-04-02, 10:36:04,VALID,919.051,VALID,0,VALID,90.7339,VALID,385.499,VALID,23.992,VALID,115,VALID,2.15039,
2016-04-02, 10:37:04,VALID,918.987,VALID,0,VALID,84.9249,VALID,510.238,VALID,24.0506,VALID,103,VALID,0.922656,
2016-04-02, 10:38:04,VALID,918.978,VALID,0,VALID,84.3455,VALID,486.708,VALID,24.0488,VALID,106,VALID,1.3082,
2016-04-02, 10:39:04,VALID,918.907,VALID,0,VALID,84.6504,VALID,392.268,VALID,24.0683,VALID,106,VALID,1.98125,
2016-04-02, 10:40:04,VALID,918.893,VALID,0,VALID,84.4293,VALID,359.498,VALID,24.0896,VALID,72,VALID,2.39141,
2016-04-02, 10:41:04,VALID,918.886,VALID,0,VALID,83.8804,VALID,392.375,VALID,24.1269,VALID,106,VALID,1.87109,
2016-04-02, 10:42:04,VALID,918.846,VALID,0,VALID,84.6199,VALID,393.127,VALID,24.2049,VALID,87,VALID,1.92656,
2016-04-02, 10:43:04,VALID,918.863,VALID,0,VALID,84.8639,VALID,387.755,VALID,24.1854,VALID,59,VALID,2.28633,
2016-04-02, 10:44:04,VALID,918.837,VALID,0,VALID,81.8221,VALID,389.904,VALID,24.2068,VALID,62,VALID,2.95625,
2016-04-02, 10:45:04,VALID,918.84,VALID,0,VALID,89.1254,VALID,393.879,VALID,24.1659,VALID,57,VALID,1.58125,
2016-04-02, 10:46:04,VALID,918.857,VALID,0,VALID,87.1356,VALID,420.202,VALID,24.244,VALID,47,VALID,1.68711,
2016-04-02, 10:47:04,VALID,918.864,VALID,0,VALID,82.0737,VALID,483.055,VALID,24.2654,VALID,53,VALID,1.28086,
2016-04-02, 10:48:04,VALID,918.828,VALID,0,VALID,82.7141,VALID,466.617,VALID,24.3239,VALID,54,VALID,2.05781,
2016-04-02, 10:49:04,VALID,918.882,VALID,0,VALID,82.8513,VALID,494.552,VALID,24.4216,VALID,116,VALID,0.940625,
2016-04-02, 10:50:04,VALID,918.869,VALID,0,VALID,79.6647,VALID,586.844,VALID,24.3825,VALID,102,VALID,2.89063,
2016-04-02, 10:51:04,VALID,918.844,VALID,0,VALID,79.962,VALID,774.006,VALID,24.3435,VALID,105,VALID,1.60352,
2016-04-02, 10:52:04,VALID,918.828,VALID,0,VALID,79.8248,VALID,633.688,VALID,24.402,VALID,56,VALID,2.79219,
2016-04-02, 10:53:04,VALID,918.795,VALID,0,VALID,79.032,VALID,430.302,VALID,24.402,VALID,45,VALID,0.788281,
2016-04-02, 10:54:04,VALID,918.798,VALID,0,VALID,80.7015,VALID,422.888,VALID,24.5192,VALID,113,VALID,0.103125,
2016-04-02, 10:55:04,VALID,918.848,VALID,0,VALID,80.427,VALID,365.622,VALID,24.6559,VALID,117,VALID,0.579687,
2016-04-02, 10:56:04,VALID,918.825,VALID,0,VALID,79.6342,VALID,272.578,VALID,24.6559,VALID,117,VALID,3.05312,
2016-04-02, 10:57:04,VALID,918.842,VALID,0,VALID,78.9405,VALID,256.032,VALID,24.6363,VALID,91,VALID,1.26172,
2016-04-02, 10:58:04,VALID,918.824,VALID,0,VALID,80.3356,VALID,252.272,VALID,24.5564,VALID,54,VALID,0.713281,
2016-04-02, 10:59:04,VALID,918.769,VALID,0,VALID,79.9315,VALID,263.016,VALID,24.4392,VALID,83,VALID,1.88281,
2016-04-02, 11:00:04,VALID,918.765,VALID,0,VALID,79.5122,VALID,462.749,VALID,24.3825,VALID,94,VALID,2.17422,
2016-04-02, 11:01:04,VALID,918.767,VALID,0,VALID,78.6279,VALID,280.636,VALID,24.3026,VALID,74,VALID,2.14727,
2016-04-02, 11:02:04,VALID,918.747,VALID,0,VALID,79.2988,VALID,286.76,VALID,24.244,VALID,100,VALID,3.03203,
2016-04-02, 11:03:04,VALID,918.768,VALID,0,VALID,80.9226,VALID,347.572,VALID,24.244,VALID,80,VALID,1.59336,
2016-04-02, 11:04:04,VALID,918.753,VALID,0,VALID,80.9454,VALID,322.968,VALID,24.283,VALID,79,VALID,0.628516,
2016-04-02, 11:05:04,VALID,918.724,VALID,0,VALID,80.8158,VALID,315.877,VALID,24.3435,VALID,94,VALID,1.52422,
2016-04-02, 11:06:04,VALID,918.694,VALID,0,VALID,81.2427,VALID,411.822,VALID,24.402,VALID,34,VALID,1.17539,
2016-04-02, 11:07:04,VALID,918.703,VALID,0,VALID,78.6508,VALID,375.077,VALID,24.4801,VALID,70,VALID,2.71797,
2016-04-02, 11:08:04,VALID,918.697,VALID,0,VALID,79.5808,VALID,352.837,VALID,24.5192,VALID,62,VALID,1.7,
2016-04-02, 11:09:04,VALID,918.714,VALID,0,VALID,78.849,VALID,274.082,VALID,24.4978,VALID,92,VALID,1.75547,
2016-04-02, 11:10:04,VALID,918.729,VALID,0,VALID,80.2669,VALID,303.521,VALID,24.4392,VALID,116,VALID,0.537891,
2016-04-02, 11:11:04,VALID,918.665,VALID,0,VALID,81.3342,VALID,384.962,VALID,24.4569,VALID,82,VALID,0.7125,
2016-04-02, 11:12:04,VALID,918.651,VALID,0,VALID,79.3369,VALID,859.422,VALID,24.5173,VALID,53,VALID,2.21641,
2016-04-02, 11:13:04,VALID,918.685,VALID,0,VALID,81.5324,VALID,1014.35,VALID,24.6735,VALID,66,VALID,1.80391,
2016-04-02, 11:14:04,VALID,918.64,VALID,0,VALID,79.6266,VALID,1067.86,VALID,24.8511,VALID,49,VALID,1.95508,
2016-04-02, 11:15:04,VALID,918.624,VALID,0,VALID,77.9723,VALID,885.315,VALID,25.1617,VALID,95,VALID,0.790234,
2016-04-02, 11:16:04,VALID,918.57,VALID,0,VALID,75.6548,VALID,950.317,VALID,25.4351,VALID,154,VALID,0,
2016-04-02, 11:17:04,VALID,918.6,VALID,0,VALID,74.2063,VALID,547.735,VALID,25.648,VALID,118,VALID,1.89531,
2016-04-02, 11:18:04,VALID,918.55,VALID,0,VALID,76.8974,VALID,761.758,VALID,25.5718,VALID,65,VALID,0.426953,
2016-04-02, 11:19:04,VALID,918.573,VALID,0,VALID,76.9431,VALID,827.834,VALID,25.7866,VALID,44,VALID,0.268359,
2016-04-02, 11:20:04,VALID,918.564,VALID,0,VALID,73.1314,VALID,715.236,VALID,26.0601,VALID,106,VALID,0.104297,
2016-04-02, 11:21:04,VALID,918.504,VALID,0,VALID,72.9103,VALID,752.948,VALID,26.0015,VALID,173,VALID,0.201172,
2016-04-02, 11:22:04,VALID,918.488,VALID,0,VALID,74.5799,VALID,879.836,VALID,25.982,VALID,160,VALID,1.56172,
2016-04-02, 11:23:04,VALID,918.484,VALID,0,VALID,75.0144,VALID,755.096,VALID,26.0972,VALID,55,VALID,0,
2016-04-02, 11:24:04,VALID,918.495,VALID,0,VALID,72.0032,VALID,337.473,VALID,26.1558,VALID,138,VALID,0.484375,
2016-04-02, 11:25:04,VALID,918.413,VALID,0,VALID,73.1009,VALID,418.698,VALID,25.9604,VALID,76,VALID,2.97734,
2016-04-02, 11:26:04,VALID,918.46,VALID,0,VALID,73.1695,VALID,399.896,VALID,25.6499,VALID,84,VALID,1.8,
2016-04-02, 11:27:04,VALID,918.433,VALID,0,VALID,74.9229,VALID,799.04,VALID,25.4741,VALID,96,VALID,2.26094,
2016-04-02, 11:28:04,VALID,918.415,VALID,0,VALID,75.6548,VALID,754.559,VALID,25.3355,VALID,98,VALID,2.32773,
2016-04-02, 11:29:04,VALID,918.378,VALID,0,VALID,75.5557,VALID,485.956,VALID,25.2965,VALID,130,VALID,1.41797,
2016-04-02, 11:30:04,VALID,918.355,VALID,0,VALID,76.905,VALID,639.919,VALID,25.3941,VALID,171,VALID,0.178906,
2016-04-02, 11:31:04,VALID,918.355,VALID,0,VALID,75.975,VALID,752.195,VALID,25.689,VALID,157,VALID,0.000390625,
2016-04-02, 11:32:04,VALID,918.331,VALID,0,VALID,74.6409,VALID,424.393,VALID,25.7651,VALID,86,VALID,1.39336,
2016-04-02, 11:33:04,VALID,918.353,VALID,0,VALID,72.6816,VALID,481.014,VALID,25.7066,VALID,58,VALID,1.44961,
2016-04-02, 11:34:04,VALID,918.324,VALID,0,VALID,74.4655,VALID,873.067,VALID,25.5894,VALID,66,VALID,2.48789,
2016-04-02, 11:35:04,VALID,918.346,VALID,0,VALID,72.5902,VALID,751.229,VALID,25.4722,VALID,84,VALID,0.805859,
2016-04-02, 11:36:04,VALID,918.319,VALID,0,VALID,74.2521,VALID,765.303,VALID,25.4136,VALID,81,VALID,0,
2016-04-02, 11:37:04,VALID,918.357,VALID,0,VALID,75.1135,VALID,816.983,VALID,25.4741,VALID,87,VALID,0.965625,
2016-04-02, 11:38:04,VALID,918.315,VALID,0,VALID,74.5189,VALID,957.301,VALID,25.4741,VALID,84,VALID,1.57773,
2016-04-02, 11:39:04,VALID,918.327,VALID,0,VALID,73.505,VALID,985.665,VALID,25.5113,VALID,39,VALID,2.7582,
2016-04-02, 11:40:04,VALID,918.276,VALID,0,VALID,70.5623,VALID,857.273,VALID,25.6655,VALID,46,VALID,2.29375,
2016-04-02, 11:41:04,VALID,918.267,VALID,0,VALID,74.4503,VALID,686.012,VALID,25.7632,VALID,43,VALID,3.19453,
2016-04-02, 11:42:04,VALID,918.275,VALID,0,VALID,75.7615,VALID,1001.67,VALID,25.9604,VALID,52,VALID,0.777344,
2016-04-02, 11:43:04,VALID,918.243,VALID,0,VALID,74.1225,VALID,617.035,VALID,26.2339,VALID,76,VALID,1.80156,
2016-04-02, 11:44:04,VALID,918.278,VALID,0,VALID,72.4987,VALID,946.664,VALID,26.271,VALID,73,VALID,1.83047,
2016-04-02, 11:45:04,VALID,918.215,VALID,0,VALID,71.7592,VALID,456.84,VALID,26.2514,VALID,34,VALID,3.31523,
2016-04-02, 11:46:04,VALID,918.292,VALID,0,VALID,71.9727,VALID,422.566,VALID,26.0757,VALID,82,VALID,1.02773,
2016-04-02, 11:47:04,VALID,918.3,VALID,0,VALID,70.2955,VALID,634.225,VALID,25.9585,VALID,44,VALID,1.41016,
2016-04-02, 11:48:04,VALID,918.335,VALID,0,VALID,71.6906,VALID,364.44,VALID,25.8608,VALID,95,VALID,2.68984,
2016-04-02, 11:49:04,VALID,918.292,VALID,0,VALID,70.3031,VALID,346.498,VALID,25.6655,VALID,70,VALID,1.67227,
2016-04-02, 11:50:04,VALID,918.331,VALID,0,VALID,74.8848,VALID,430.624,VALID,25.607,VALID,79,VALID,0.920313,
2016-04-02, 11:51:04,VALID,918.282,VALID,0,VALID,74.8467,VALID,403.549,VALID,25.646,VALID,70,VALID,2.15977,
2016-04-02, 11:52:04,VALID,918.262,VALID,0,VALID,74.2368,VALID,443.087,VALID,25.648,VALID,34,VALID,2.58125,
2016-04-02, 11:53:04,VALID,918.278,VALID,0,VALID,75.1516,VALID,1036.16,VALID,25.8237,VALID,96,VALID,1.09961,
2016-04-02, 11:54:04,VALID,918.214,VALID,0,VALID,75.9063,VALID,585.984,VALID,26.019,VALID,83,VALID,0.69375,
2016-04-02, 11:55:04,VALID,918.237,VALID,0,VALID,72.0489,VALID,649.589,VALID,26.2339,VALID,135,VALID,1.77773,
2016-04-02, 11:56:04,VALID,918.211,VALID,0,VALID,70.7987,VALID,1005.43,VALID,26.2534,VALID,132,VALID,0.0355469,
2016-04-02, 11:57:04,VALID,918.201,VALID,0,VALID,70.8825,VALID,497.775,VALID,26.273,VALID,112,VALID,0.50625,
2016-04-02, 11:58:04,VALID,918.23,VALID,0,VALID,71.1875,VALID,421.814,VALID,26.3726,VALID,78,VALID,2.00156,
2016-04-02, 11:59:04,VALID,918.128,VALID,0,VALID,71.3857,VALID,868.447,VALID,26.1753,VALID,122,VALID,0.795703,
2016-04-02, 12:00:04,VALID,918.136,VALID,0,VALID,73.5507,VALID,907.985,VALID,26.2339,VALID,51,VALID,1.12227,
2016-04-02, 12:01:04,VALID,918.14,VALID,0,VALID,72.7731,VALID,835.57,VALID,26.3902,VALID,96,VALID,1.81875,
2016-04-02, 12:02:04,VALID,918.116,VALID,0,VALID,71.9422,VALID,789.37,VALID,26.5855,VALID,58,VALID,0.369922,
2016-04-02, 12:03:04,VALID,918.134,VALID,0,VALID,68.8318,VALID,744.137,VALID,26.6636,VALID,96,VALID,0.49375,
2016-04-02, 12:04:04,VALID,918.109,VALID,0,VALID,70.8978,VALID,754.774,VALID,26.7613,VALID,95,VALID,0.819922,
2016-04-02, 12:05:04,VALID,918.116,VALID,0,VALID,69.2282,VALID,712.55,VALID,26.7593,VALID,163,VALID,0.0703125,
2016-04-02, 12:06:04,VALID,918.095,VALID,0,VALID,67.3834,VALID,733.286,VALID,26.7613,VALID,138,VALID,0.00351562,
2016-04-02, 12:07:04,VALID,918.04,VALID,0,VALID,70.9359,VALID,645.829,VALID,26.7418,VALID,85,VALID,1.81289,
2016-04-02, 12:08:04,VALID,918.037,VALID,0,VALID,71.2561,VALID,636.696,VALID,26.7007,VALID,48,VALID,2.86016,
2016-04-02, 12:09:04,VALID,918.046,VALID,0,VALID,70.6843,VALID,973.524,VALID,26.7007,VALID,57,VALID,2.67305,
2016-04-02, 12:10:04,VALID,918.014,VALID,0,VALID,69.8305,VALID,486.494,VALID,26.7202,VALID,58,VALID,1.73711,
2016-04-02, 12:11:04,VALID,917.984,VALID,0,VALID,69.1368,VALID,499.709,VALID,26.6616,VALID,52,VALID,3.29727,
2016-04-02, 12:12:04,VALID,918.003,VALID,0,VALID,69.1977,VALID,938.713,VALID,26.5054,VALID,34,VALID,3.41445,
2016-04-02, 12:13:04,VALID,917.957,VALID,0,VALID,71.5839,VALID,503.039,VALID,26.6246,VALID,51,VALID,1.81406,
2016-04-02, 12:14:04,VALID,917.951,VALID,0,VALID,67.1547,VALID,966.97,VALID,26.4468,VALID,52,VALID,3.15313,
2016-04-02, 12:15:04,VALID,917.942,VALID,0,VALID,68.2753,VALID,935.275,VALID,26.271,VALID,52,VALID,1.55195,
2016-04-02, 12:16:04,VALID,917.952,VALID,0,VALID,72.0032,VALID,851.793,VALID,26.3902,VALID,156,VALID,0.278906,
2016-04-02, 12:17:04,VALID,917.933,VALID,0,VALID,68.3973,VALID,786.362,VALID,26.4077,VALID,222,VALID,0.322656,
2016-04-02, 12:18:04,VALID,917.892,VALID,0,VALID,70.4099,VALID,910.027,VALID,26.5855,VALID,82,VALID,0.0078125,
2016-04-02, 12:19:04,VALID,917.909,VALID,0,VALID,71.2256,VALID,1027.46,VALID,26.7047,VALID,123,VALID,2.2418,
2016-04-02, 12:20:04,VALID,917.864,VALID,0,VALID,69.1977,VALID,1008.98,VALID,26.7809,VALID,169,VALID,0.791797,
2016-04-02, 12:21:04,VALID,917.869,VALID,0,VALID,69.0072,VALID,963.532,VALID,26.7418,VALID,134,VALID,0.122266,
2016-04-02, 12:22:04,VALID,917.861,VALID,0,VALID,69.0377,VALID,998.558,VALID,26.9937,VALID,111,VALID,0.0121094,
2016-04-02, 12:23:04,VALID,917.863,VALID,0,VALID,66.6973,VALID,881.232,VALID,27.3844,VALID,89,VALID,0.550781,
2016-04-02, 12:24:04,VALID,917.832,VALID,0,VALID,68.3744,VALID,797.213,VALID,27.4235,VALID,52,VALID,3.34023,
2016-04-02, 12:25:04,VALID,917.892,VALID,0,VALID,67.9094,VALID,453.402,VALID,27.3063,VALID,75,VALID,1.27227,
2016-04-02, 12:26:04,VALID,917.911,VALID,0,VALID,69.1596,VALID,463.179,VALID,27.3844,VALID,48,VALID,0.692578,
2016-04-02, 12:27:04,VALID,917.931,VALID,0,VALID,68.8166,VALID,444.914,VALID,27.4431,VALID,116,VALID,0,
2016-04-02, 12:28:04,VALID,917.933,VALID,0,VALID,69.2892,VALID,363.366,VALID,27.5408,VALID,72,VALID,0.0164062,
2016-04-02, 12:29:04,VALID,917.907,VALID,0,VALID,69.1825,VALID,325.976,VALID,27.4431,VALID,41,VALID,1.79922,
2016-04-02, 12:30:04,VALID,917.906,VALID,0,VALID,67.5282,VALID,291.38,VALID,27.2672,VALID,60,VALID,2.74883,
2016-04-02, 12:31:04,VALID,917.897,VALID,0,VALID,66.7811,VALID,292.562,VALID,26.8765,VALID,69,VALID,2.82383,
2016-04-02, 12:32:04,VALID,917.916,VALID,0,VALID,68.6641,VALID,280.421,VALID,26.6226,VALID,50,VALID,0.552344,
2016-04-02, 12:33:04,VALID,917.925,VALID,0,VALID,69.678,VALID,291.81,VALID,26.4663,VALID,58,VALID,0.715234,
2016-04-02, 12:34:04,VALID,917.9,VALID,0,VALID,66.7125,VALID,312.009,VALID,26.2905,VALID,56,VALID,3.52422,
2016-04-02, 12:35:04,VALID,917.917,VALID,0,VALID,68.5193,VALID,337.258,VALID,26.0757,VALID,55,VALID,2.03516,
2016-04-02, 12:36:04,VALID,917.922,VALID,0,VALID,68.0085,VALID,439.112,VALID,25.978,VALID,37,VALID,1.35234,
2016-04-02, 12:37:04,VALID,917.874,VALID,0,VALID,68.8166,VALID,400.755,VALID,25.9995,VALID,64,VALID,0.572266,
2016-04-02, 12:38:04,VALID,917.87,VALID,0,VALID,71.1265,VALID,358.101,VALID,26.0972,VALID,55,VALID,0,
2016-04-02, 12:39:04,VALID,917.858,VALID,0,VALID,69.7543,VALID,337.58,VALID,26.1948,VALID,44,VALID,1.93984,
2016-04-02, 12:40:04,VALID,917.86,VALID,0,VALID,69.3121,VALID,344.779,VALID,26.1362,VALID,53,VALID,0.242578,
2016-04-02, 12:41:04,VALID,917.797,VALID,0,VALID,71.7668,VALID,360.25,VALID,26.0972,VALID,54,VALID,2.02422,
2016-04-02, 12:42:04,VALID,917.775,VALID,0,VALID,70.4251,VALID,331.886,VALID,26.0776,VALID,37,VALID,2.96758,
2016-04-02, 12:43:04,VALID,917.816,VALID,0,VALID,70.0058,VALID,305.133,VALID,26.0776,VALID,39,VALID,1.81211,
2016-04-02, 12:44:04,VALID,917.79,VALID,0,VALID,70.0516,VALID,298.042,VALID,26.1362,VALID,49,VALID,2.03672,
2016-04-02, 12:45:04,VALID,917.782,VALID,0,VALID,70.4099,VALID,285.149,VALID,26.0972,VALID,30,VALID,2.59453,
2016-04-02, 12:46:04,VALID,917.801,VALID,0,VALID,71.4848,VALID,269.033,VALID,26.1167,VALID,68,VALID,1.35859,
2016-04-02, 12:47:04,VALID,917.743,VALID,0,VALID,72.6664,VALID,246.04,VALID,26.0776,VALID,50,VALID,1.09258,
2016-04-02, 12:48:04,VALID,917.739,VALID,0,VALID,71.378,VALID,227.668,VALID,26.019,VALID,49,VALID,0.596094,
2016-04-02, 12:49:04,VALID,917.753,VALID,0,VALID,70.509,VALID,224.015,VALID,25.9409,VALID,76,VALID,2.03242,
2016-04-02, 12:50:04,VALID,917.714,VALID,0,VALID,73.2153,VALID,231.751,VALID,25.8628,VALID,54,VALID,0.825,
2016-04-02, 12:51:04,VALID,917.71,VALID,0,VALID,73.566,VALID,244.214,VALID,25.9019,VALID,62,VALID,2.0125,
2016-04-02, 12:52:04,VALID,917.702,VALID,0,VALID,71.7287,VALID,260.437,VALID,25.8608,VALID,52,VALID,0.442187,
2016-04-02, 12:53:04,VALID,917.695,VALID,0,VALID,72.6207,VALID,275.801,VALID,25.9409,VALID,29,VALID,0,
2016-04-02, 12:54:04,VALID,917.699,VALID,0,VALID,72.2624,VALID,288.909,VALID,26.0757,VALID,55,VALID,0.226172,
2016-04-02, 12:55:04,VALID,917.677,VALID,0,VALID,72.9637,VALID,376.259,VALID,26.1147,VALID,40,VALID,0.183594,
2016-04-02, 12:56:04,VALID,917.673,VALID,0,VALID,72.7808,VALID,302.877,VALID,26.2124,VALID,45,VALID,0,
2016-04-02, 12:57:04,VALID,917.663,VALID,0,VALID,71.5534,VALID,303.736,VALID,26.1733,VALID,36,VALID,0.264844,
2016-04-02, 12:58:04,VALID,917.623,VALID,0,VALID,71.8659,VALID,327.588,VALID,26.0757,VALID,5,VALID,0,
2016-04-02, 12:59:04,VALID,917.607,VALID,0,VALID,71.9803,VALID,300.835,VALID,26.0952,VALID,51,VALID,0.0015625,
2016-04-02, 13:00:04,VALID,917.585,VALID,0,VALID,69.7924,VALID,300.835,VALID,26.1733,VALID,10,VALID,1.88516,
2016-04-02, 13:01:04,VALID,917.543,VALID,0,VALID,68.3973,VALID,323.505,VALID,26.1928,VALID,344,VALID,0.00585938,
2016-04-02, 13:02:04,VALID,917.528,VALID,0,VALID,69.6247,VALID,368.738,VALID,26.2534,VALID,21,VALID,0.207813,
2016-04-02, 13:03:04,VALID,917.492,VALID,0,VALID,70.5014,VALID,470.162,VALID,26.2124,VALID,2,VALID,1.17109,
2016-04-02, 13:04:04,VALID,917.494,VALID,0,VALID,69.0529,VALID,507.445,VALID,26.31,VALID,23,VALID,0.107422,
2016-04-02, 13:05:04,VALID,917.523,VALID,0,VALID,68.9233,VALID,442.443,VALID,26.4468,VALID,15,VALID,0.822656,
2016-04-02, 13:06:04,VALID,917.492,VALID,0,VALID,69.3273,VALID,474.03,VALID,26.6636,VALID,61,VALID,0.0960938,
2016-04-02, 13:07:04,VALID,917.52,VALID,0,VALID,67.7264,VALID,541.289,VALID,26.6657,VALID,60,VALID,1.51563,
2016-04-02, 13:08:04,VALID,917.483,VALID,0,VALID,69.2587,VALID,502.717,VALID,26.5855,VALID,51,VALID,0.00585938,
2016-04-02, 13:09:04,VALID,917.503,VALID,0,VALID,68.0237,VALID,552.462,VALID,26.566,VALID,6,VALID,0,
2016-04-02, 13:10:04,VALID,917.447,VALID,0,VALID,69.5408,VALID,619.613,VALID,26.6636,VALID,16,VALID,1.50586,
2016-04-02, 13:11:04,VALID,917.467,VALID,0,VALID,67.5511,VALID,780.56,VALID,26.6246,VALID,63,VALID,1.88242,
2016-04-02, 13:12:04,VALID,917.458,VALID,0,VALID,67.5358,VALID,1027.46,VALID,26.4488,VALID,59,VALID,0.273047,
2016-04-02, 13:13:04,VALID,917.408,VALID,0,VALID,70.0516,VALID,697.615,VALID,26.5269,VALID,61,VALID,1.01289,
2016-04-02, 13:14:04,VALID,917.394,VALID,0,VALID,70.3717,VALID,655.821,VALID,26.4878,VALID,61,VALID,1.56094,
2016-04-02, 13:15:04,VALID,917.404,VALID,0,VALID,67.4444,VALID,739.625,VALID,26.4488,VALID,61,VALID,1.30469,
2016-04-02, 13:16:04,VALID,917.4,VALID,0,VALID,72.2929,VALID,708.897,VALID,26.5269,VALID,62,VALID,0.341016,
2016-04-02, 13:17:04,VALID,917.368,VALID,0,VALID,67.8713,VALID,828.371,VALID,26.4292,VALID,115,VALID,1.53555,